Location: ??????
(38.3184°N, 23.6932°E)
Time: 18:10:31
(UTC+00:00)

Cosmos 1727 Rocket - Pass Details

Date: 01 June 2022
Orbit: 961 x 996 km, 82.9° (Epoch: 28 June)

Event Time Altitude Azimuth Distance (km) Brightness Sun altitude
Rises 01:56:08 0° 145° (SE) 3,678 7.0 -11.7°
Reaches altitude 10° 01:59:14 10° 130° (SE) 2,740 6.5 -11.2°
Maximum altitude 02:03:47 21° 84° (E) 2,043 6.5 -10.5°
Drops below altitude 10° 02:08:22 10° 37° (NE) 2,765 7.8 -9.8°
Sets 02:11:30 0° 23° (NNE) 3,721 8.2 -9.3°
